FW0451 Weather Reports


Display with metric or nautical units.
time (UTC)temp
F
wind
direction
speed
MPH
gust
MPH
rain 1hr
in
rain 24hr
in
rain mn
in
humidity
%
barometer
mb
20260506004541 60 17 4.0 9.0 0.00 0.00 0.00 43 1010.9
20260506003034 61 18 6.0 12.0 0.00 0.00 0.00 43 1010.8
20260506001538 59 18 0.0 5.0 0.00 0.00 0.00 49 1011.0
20260506000037 60 18 1.0 8.0 0.00 0.00 0.00 51 1011.1
20260505234527 57 18 2.0 6.0 0.00 0.00 0.00 53 1011.1
20260505233026 55 18 1.0 9.0 0.00 0.00 0.00 60 1011.2
20260505231525 57 18 2.0 5.0 0.00 0.00 0.00 61 1011.4
20260505230032 57 18 1.0 5.0 0.00 0.00 0.00 58 1011.6
20260505224534 58 18 1.0 4.0 0.00 0.00 0.00 59 1011.7
20260505223028 56 18 1.0 5.0 0.00 0.00 0.00 60 1011.8
20260505221517 55 18 1.0 5.0 0.00 0.00 0.00 61 1012.0
20260505220025 54 18 5.0 9.0 0.00 0.00 0.00 67 1012.1
20260505214518 53 18 5.0 8.0 0.00 0.00 0.00 69 1012.2
20260505213011 52 18 3.0 7.0 0.00 0.00 0.00 67 1012.4
20260505211511 53 18 0.0 4.0 0.00 0.00 0.00 69 1012.4
20260505210008 51 18 0.0 4.0 0.00 0.00 0.00 74 1012.5
20260505204510 50 17 2.0 4.0 0.00 0.00 0.00 77 1012.6
20260505203002 49 17 1.0 6.0 0.00 0.00 0.00 81 1012.6
20260505201607 49 17 4.0 7.0 0.00 0.00 0.00 80 1012.6
20260505200057 47 18 1.0 4.0 0.00 0.00 0.00 84 1012.8
20260505194555 47 17 1.0 5.0 0.00 0.00 0.00 84 1012.8
20260505193052 46 17 0.0 4.0 0.00 0.00 0.00 88 1012.8
20260505191555 45 17 0.0 5.0 0.00 0.00 0.00 87 1012.7
20260505190103 45 17 1.0 6.0 0.00 0.00 0.00 90 1012.5
20260505184559 45 17 3.0 7.0 0.00 0.00 0.00 89 1012.4
20260505183050 44 17 1.0 4.0 0.00 0.00 0.00 90 1012.4
20260505181541 43 17 1.0 4.0 0.00 0.00 0.00 92 1012.4
20260505180042 43 17 3.0 7.0 0.00 0.00 0.00 93 1012.3
20260505174541 43 17 5.0 8.0 0.00 0.00 0.00 93 1012.0
20260505173039 42 18 3.0 8.0 0.00 0.00 0.00 95 1011.8
20260505171539 42 18 3.0 9.0 0.00 0.00 0.00 95 1011.6
20260505170033 41 18 5.0 9.0 0.00 0.00 0.00 95 1011.4
20260505164535 41 17 3.0 6.0 0.00 0.00 0.00 95 1011.5
20260505163029 40 17 3.0 5.0 0.00 0.00 0.00 95 1011.4
20260505161524 40 17 2.0 7.0 0.00 0.00 0.00 95 1011.2
20260505153026 40 17 0.0 2.0 0.00 0.00 0.00 95 1010.8
20260505151518 40 17 0.0 3.0 0.00 0.00 0.00 95 1010.6
20260505124607 38 17 6.0 9.0 0.00 0.00 0.00 95 1008.5
20260505123112 38 17 4.0 8.0 0.00 0.00 0.00 95 1008.4
20260505121557 38 18 4.0 8.0 0.00 0.00 0.00 95 1008.4
20260505120057 38 18 1.0 5.0 0.00 0.00 0.00 95 1008.5
20260505114602 38 18 0.0 4.0 0.00 0.00 0.00 95 1008.4
20260505113057 38 17 2.0 5.0 0.00 0.00 0.00 95 1008.4
20260505111600 38 17 0.0 4.0 0.00 0.00 0.00 95 1008.4
20260505101553 38 18 0.0 1.0 0.00 0.00 0.00 95 1008.5
20260505100059 38 17 0.0 2.0 0.00 0.00 0.00 95 1008.4
20260505094551 38 17 0.0 4.0 0.00 0.00 0.00 95 1008.7
20260505093050 38 18 0.0 1.0 0.00 0.00 0.00 95 1008.6
20260505091550 38 18 0.0 5.0 0.00 0.00 0.00 95 1008.7
20260505090100 38 17 3.0 6.0 0.00 0.00 0.00 95 1008.2
20260505084547 38 17 0.0 3.0 0.00 0.00 0.00 95 1008.6
20260505083046 38 17 0.0 1.0 0.00 0.00 0.00 95 1008.8
20260505081548 38 17 2.0 4.0 0.00 0.00 0.00 95 1008.8
20260505080052 38 17 1.0 6.0 0.00 0.00 0.00 94 1008.7
20260505074543 38 17 6.0 9.0 0.00 0.00 0.00 94 1008.7
20260505073052 38 17 3.0 5.0 0.00 0.00 0.00 94 1008.4
20260505071537 38 18 0.0 6.0 0.00 0.00 0.00 93 1009.3
20260505070034 39 18 0.0 7.0 0.00 0.00 0.00 93 1008.8
20260505064532 39 18 0.0 5.0 0.00 0.00 0.00 92 1008.8
20260505063034 38 18 0.0 5.0 0.00 0.00 0.00 93 1008.6
20260505061531 38 18 1.0 3.0 0.00 0.00 0.00 92 1008.5
20260505060034 39 17 0.0 9.0 0.00 0.00 0.00 91 1008.4
20260505054529 39 17 5.0 14.0 0.00 0.00 0.00 91 1008.4
20260505053029 39 17 0.0 6.0 0.00 0.00 0.00 92 1008.7
20260505051528 39 18 0.0 2.0 0.00 0.00 0.00 91 1008.8
20260505041539 39 17 0.0 3.0 0.00 0.00 0.00 91 1008.5
20260505040022 40 18 1.0 3.0 0.00 0.00 0.00 90 1007.9
20260505034521 39 17 1.0 3.0 0.00 0.00 0.00 92 1007.6
20260505033020 39 17 2.0 7.0 0.00 0.00 0.00 92 1007.5
20260505031519 39 17 2.0 5.0 0.00 0.00 0.00 93 1007.9
20260505030020 39 18 0.0 4.0 0.00 0.00 0.00 92 1008.2
20260505024521 39 18 0.0 3.0 0.00 0.00 0.00 91 1008.0
20260505023017 39 17 0.0 3.0 0.00 0.00 0.00 92 1007.6
20260505021520 39 17 5.0 10.0 0.00 0.00 0.00 92 1007.2
20260505020019 39 17 4.0 13.0 0.00 0.00 0.00 92 1007.1
20260505014516 39 18 8.0 16.0 0.00 0.00 0.00 93 1006.4
20260505013013 40 17 3.0 5.0 0.00 0.00 0.00 92 1008.3
20260505011510 40 17 1.0 4.0 0.00 0.00 0.00 91 1008.3
20260505010005 41 18 3.0 8.0 0.00 0.00 0.00 88 1008.1